Location: Newark
(48.5667°N, 3.3000°E)
Time: 02:05:51
(UTC+00:00)

OTV 5 (USA 277) - Visible Passes

Search period start: 22 October 2019 00:00
Search period end: 01 November 2019 00:00
Orbit: 310 x 324 km, 54.5° (Epoch: 17 October)

Date Brightness Start Highest point End Pass type
(mag) Time Alt. Az. Time Alt. Az. Time Alt. Az.
28 Oct ? 18:38:24 10° SSW 18:38:40 12° SSW 18:38:40 12° SSW visible
29 Oct ? 18:52:37 10° SW 18:53:11 15° SW 18:53:11 15° SW visible
30 Oct ? 17:33:38 10° S 17:35:48 21° SE 17:36:39 18° ESE visible
30 Oct ? 19:07:13 10° WSW 19:07:33 12° WSW 19:07:33 12° WSW visible
31 Oct ? 17:47:33 10° SW 17:50:11 47° SE 17:50:56 35° E visible
